TimeCST,TemperatureF,Dew PointF,Humidity,Sea Level PressureIn,VisibilityMPH,Wind Direction,Wind SpeedMPH,Gust SpeedMPH,PrecipitationIn,Events,Conditions,WindDirDegrees,DateUTC
12:54 AM,39.9,27.0,60,30.03,10.0,SSW,15.0,-,N/A,,Clear,200,2013-01-19 06:54:00
1:54 AM,39.0,27.0,62,30.03,10.0,SSW,13.8,-,N/A,,Clear,200,2013-01-19 07:54:00
2:54 AM,39.0,27.0,62,30.02,10.0,SSW,13.8,-,N/A,,Clear,200,2013-01-19 08:54:00
3:54 AM,37.9,28.0,68,30.00,10.0,SSW,12.7,-,N/A,,Clear,200,2013-01-19 09:54:00
4:54 AM,37.9,28.0,68,29.99,10.0,SSW,13.8,-,N/A,,Clear,200,2013-01-19 10:54:00
5:54 AM,37.9,28.9,70,29.98,10.0,SSW,15.0,-,N/A,,Clear,200,2013-01-19 11:54:00
6:54 AM,37.9,28.9,70,29.97,10.0,SSW,13.8,-,N/A,,Clear,210,2013-01-19 12:54:00
7:54 AM,39.0,30.0,70,29.96,10.0,SSW,13.8,-,N/A,,Clear,210,2013-01-19 13:54:00
8:54 AM,42.1,30.9,65,29.96,10.0,SW,15.0,-,N/A,,Clear,220,2013-01-19 14:54:00
9:54 AM,46.9,33.1,59,29.96,10.0,WSW,21.9,27.6,N/A,,Clear,240,2013-01-19 15:54:00
10:54 AM,50.0,34.0,54,29.93,10.0,WSW,18.4,29.9,N/A,,Clear,240,2013-01-19 16:54:00
11:54 AM,52.0,34.0,50,29.91,10.0,WSW,19.6,31.1,N/A,,Clear,250,2013-01-19 17:54:00
12:54 PM,53.1,35.1,50,29.89,10.0,West,13.8,23.0,N/A,,Clear,260,2013-01-19 18:54:00
1:54 PM,54.0,36.0,51,29.88,10.0,WSW,15.0,23.0,N/A,,Clear,250,2013-01-19 19:54:00
2:54 PM,54.0,35.1,49,29.88,10.0,WSW,19.6,-,N/A,,Clear,240,2013-01-19 20:54:00
3:54 PM,54.0,35.1,49,29.90,10.0,WSW,13.8,-,N/A,,Clear,250,2013-01-19 21:54:00
4:54 PM,51.1,35.1,54,29.93,10.0,WSW,10.4,-,N/A,,Clear,250,2013-01-19 22:54:00
5:54 PM,48.0,34.0,58,29.97,10.0,WSW,6.9,-,N/A,,Clear,240,2013-01-19 23:54:00
6:54 PM,46.0,30.9,56,30.01,10.0,West,6.9,-,N/A,,Clear,270,2013-01-20 00:54:00
7:54 PM,45.0,30.0,56,30.04,10.0,WNW,10.4,-,N/A,,Clear,290,2013-01-20 01:54:00
8:54 PM,43.0,30.0,60,30.07,10.0,NW,10.4,-,N/A,,Clear,310,2013-01-20 02:54:00
9:54 PM,42.1,30.0,62,30.09,10.0,NW,17.3,24.2,N/A,,Clear,310,2013-01-20 03:54:00
10:54 PM,42.1,28.9,60,30.11,10.0,NW,27.6,38.0,N/A,,Clear,320,2013-01-20 04:54:00
11:54 PM,37.0,21.0,52,30.15,10.0,NW,19.6,26.5,N/A,,Clear,320,2013-01-20 05:54:00